Change the Weather History Date:

Friday, November 16, 2012

  Actual Average Record
Temperature  
Mean Temperature 44 °F -  
Max Temperature 50 °F - - ()
Min Temperature 40 °F - - ()
Degree Days  
Heating Degree Days 21    
Moisture  
Dew Point 39 °F    
Average Humidity 81    
Maximum Humidity 87    
Minimum Humidity 67    
Precipitation  
Precipitation 0.02 in - - ()
Sea Level Pressure  
Sea Level Pressure 29.81 in    
Wind  
Wind Speed 7 mph ()    
Max Wind Speed 16 mph    
Max Gust Speed -    
T = Trace of Precipitation, MM = Missing Value Source: Averaged Metar Reports

Daily Weather History Graph

Daily Weather History Graph

Search for Another Location

Airport or City:

Trip Planner

Search our weather history database for the weather conditions in past years. The results will help you decide how hot, cold, wet, or windy it might be!

Date:

Astronomy

Nov. 16, 2012 Rise Set
Actual Time 7:25 AM PST 4:34 PM PST
Civil Twilight 6:51 AM PST 5:09 PM PST
Nautical Twilight 6:13 AM PST 5:47 PM PST
Astronomical Twilight 5:36 AM PST 6:24 PM PST
Moon 10:29 AM PST (11/16) 7:38 PM PST (11/16)
Length of Visible Light 10h 18m
Length of Day
9h 09m
Waxing Crescent, 12% of the Moon is Illuminated
Nov 16
Waxing Crescent
Nov 20
First Quarter
Nov 28
Full
Dec 6
Last Quarter
Dec 13
New

Hourly Weather History & Observations

Time (PST) Temp. Windchill Dew Point Humidity Pressure Visibility Wind Dir Wind Speed Gust Speed Precip Events Conditions
12:00 AM 42.6 °F 39.0 °F 37.4 °F 82% 29.95 in - East 5.8 mph - N/A   Unknown
1:00 AM 41.7 °F 36.1 °F 36.7 °F 82% 29.93 in - ENE 9.2 mph - N/A   Unknown
2:00 AM 41.5 °F 39.6 °F 36.5 °F 82% 29.93 in - East 3.5 mph - N/A   Unknown
3:00 AM 41.2 °F 39.2 °F 36.9 °F 85% 29.92 in - East 3.5 mph - N/A   Unknown
4:00 AM 42 °F - 37 °F 75% 29.90 in - ENE 6.9 mph - -  
4:00 AM 41.9 °F 37.5 °F 36.9 °F 82% 29.90 in - ENE 6.9 mph - N/A   Unknown
5:00 AM 41.9 °F 40.0 °F 36.5 °F 81% 29.89 in - NE 3.5 mph - N/A   Unknown
6:00 AM 41.9 °F 36.9 °F 36.0 °F 79% 29.87 in - NE 8.1 mph - N/A   Unknown
7:00 AM 42.1 °F 37.7 °F 36.9 °F 82% 29.88 in - ENE 6.9 mph - N/A   Unknown
8:00 AM 41.4 °F 39.4 °F 36.7 °F 83% 29.88 in - East 3.5 mph - N/A   Unknown
9:00 AM 44.2 °F 39.2 °F 37.0 °F 76% 29.88 in - East 9.2 mph - N/A   Unknown
10:00 AM 44 °F - 39 °F 76% 29.88 in - East 8.1 mph - -  
10:00 AM 44.2 °F 39.7 °F 39.0 °F 82% 29.88 in - East 8.1 mph - N/A   Unknown
11:00 AM 44.8 °F 39.0 °F 39.9 °F 83% 29.88 in - ESE 11.5 mph - N/A   Unknown
12:00 PM 45.1 °F 38.8 °F 39.9 °F 82% 29.85 in - ESE 13.8 mph - N/A   Unknown
1:00 PM 44.6 °F 37.4 °F 40.6 °F 86% 29.83 in - ESE 16.1 mph - N/A   Unknown
2:00 PM 45.5 °F 38.6 °F 41.0 °F 84% 29.81 in - ESE 16.1 mph - N/A   Unknown
3:00 PM 46.6 °F - 41.4 °F 82% 29.78 in - ESE 16.1 mph - N/A   Unknown
4:00 PM 47 °F - 40 °F 67% 29.76 in - East 10.4 mph - -  
4:00 PM 46.6 °F - 39.6 °F 77% 29.76 in - East 10.4 mph - N/A   Unknown
5:00 PM 46.4 °F 40.1 °F 40.1 °F 79% 29.75 in - ESE 15.0 mph - N/A   Unknown
6:00 PM 46.0 °F 42.5 °F 40.8 °F 82% 29.73 in - ENE 6.9 mph - 0.01 in   Unknown
7:00 PM 45.9 °F 41.2 °F 42.3 °F 87% 29.69 in - East 9.2 mph - 0.01 in   Unknown
8:00 PM 46.2 °F 40.8 °F 42.6 °F 87% 29.68 in - East 11.5 mph - N/A   Unknown
9:00 PM 46.9 °F - 43.0 °F 86% 29.65 in - East 13.8 mph - N/A   Unknown
10:00 PM 48 °F - 44 °F 81% 29.64 in - East 11.5 mph - -  
10:00 PM 47.7 °F - 43.9 °F 87% 29.64 in - East 11.5 mph - N/A   Unknown
11:00 PM 50.9 °F - 42.8 °F 74% 29.62 in - ENE 6.9 mph - N/A   Unknown